User: anonymous   Login
Location: Unspecified
(0.0000°N, 0.0000°E)
Time: 23:52:57
(UTC+00:00)
Language:

STARLINK-1266 - Orbit

View from above orbital plane
View from above orbital plane
View from above satellite
View from above satellite

Ground track
Ground track

The orbit is defined by the following mean orbital elements,

1 45383U          26145.58335647 +.00000000 +00000-0 +11861-1 0 00003
2 45383  53.0430 123.0779 0001647  86.3635   2.3824 15.62322339    03
Epoch (UTC): 25 May 2026 14:00:01
Eccentricity: 0.0001647
inclination: 53.0430°
perigee height: 380 km
apogee height: 382 km
right ascension of ascending node: 123.0779°
argument of perigee: 86.3635°
revolutions per day: 15.62322339
mean anomaly at epoch: 2.3824°

The dashed part of the orbit path shows where the satellite is in the earth's shadow,  

DLR